When you browse on this site, cookies collect data to enhance your experience and personalize the content and advertising you see.
Visit our Privacy Policy to learn more. By continuing to use the site, you agree to this use of cookies and data.
  • In Österreich
  • Länderverzeichnis
  • Für 7 Tage
  • Wassertemperatur
  • Satellitenkarten
  • Wetterkarte
  • News
  • Widgets
  • user-avatar
    Anmelden

    Stündliche Wetter Canillo

    Heute, 21 Februar, Donnerstag

    Zeit Temperatur Niederschläge Wind Luftdruck Luftfeuchtigkeit
    00:00 +1°C° 0 mm 1 m/S 621 mmHg 68%
    01:00 +1°C° 0 mm 1 m/S 621 mmHg 65%
    02:00 +1°C° 0 mm 1 m/S 621 mmHg 63%
    03:00 +1°C° 0 mm 1 m/S 621 mmHg 60%
    04:00 +1°C° 0 mm 1 m/S 621 mmHg 58%
    05:00 0°C° 0 mm 1 m/S 621 mmHg 56%
    06:00 0°C° 0 mm 1 m/S 621 mmHg 54%
    07:00 +2°C° 0 mm 1 m/S 622 mmHg 50%
    08:00 +4°C° 0 mm 1 m/S 623 mmHg 46%
    09:00 +5°C° 0 mm 0 m/S 624 mmHg 41%
    10:00 +8°C° 0 mm 1 m/S 625 mmHg 38%
    11:00 +9°C° 0 mm 1 m/S 625 mmHg 34%
    12:00 +10°C° 0 mm 1 m/S 625 mmHg 30%
    13:00 +10°C° 0 mm 1 m/S 625 mmHg 32%
    14:00 +10°C° 0 mm 1 m/S 625 mmHg 34%
    15:00 +10°C° 0 mm 1 m/S 625 mmHg 37%
    16:00 +7°C° 0 mm 1 m/S 624 mmHg 44%
    17:00 +5°C° 0 mm 1 m/S 623 mmHg 52%
    18:00 +2°C° 0 mm 0 m/S 622 mmHg 60%
    19:00 +2°C° 0 mm 1 m/S 623 mmHg 60%
    20:00 +2°C° 0 mm 1 m/S 623 mmHg 59%
    21:00 +2°C° 0 mm 1 m/S 623 mmHg 59%
    22:00 +2°C° 0 mm 1 m/S 623 mmHg 59%
    23:00 +2°C° 0 mm 1 m/S 623 mmHg 59%

    Morgen, 22 Februar, Freitag

    Zeit Temperatur Niederschläge Wind Luftdruck Luftfeuchtigkeit
    00:00 +2°C° 0 mm 1 m/S 623 mmHg 59%
    01:00 +2°C° 0 mm 1 m/S 623 mmHg 55%
    02:00 +2°C° 0 mm 1 m/S 623 mmHg 52%
    03:00 +1°C° 0 mm 2 m/S 623 mmHg 48%
    04:00 +1°C° 0 mm 2 m/S 623 mmHg 43%
    05:00 +1°C° 0 mm 2 m/S 623 mmHg 37%
    06:00 +1°C° 0 mm 2 m/S 623 mmHg 32%
    07:00 +3°C° 0 mm 2 m/S 624 mmHg 31%
    08:00 +6°C° 0 mm 1 m/S 625 mmHg 30%
    09:00 +8°C° 0 mm 1 m/S 626 mmHg 29%
    10:00 +9°C° 0 mm 1 m/S 626 mmHg 27%
    11:00 +10°C° 0 mm 2 m/S 626 mmHg 25%
    12:00 +12°C° 0 mm 2 m/S 627 mmHg 23%
    13:00 +12°C° 0 mm 2 m/S 626 mmHg 25%
    14:00 +12°C° 0 mm 2 m/S 626 mmHg 28%
    15:00 +12°C° 0 mm 2 m/S 626 mmHg 30%
    16:00 +8°C° 0 mm 2 m/S 624 mmHg 36%
    17:00 +6°C° 0 mm 2 m/S 623 mmHg 43%
    18:00 +3°C° 0 mm 2 m/S 622 mmHg 49%
    19:00 +3°C° 0 mm 2 m/S 622 mmHg 44%
    20:00 +3°C° 0 mm 2 m/S 622 mmHg 39%
    21:00 +3°C° 0 mm 2 m/S 623 mmHg 35%
    22:00 +3°C° 0 mm 2 m/S 623 mmHg 32%
    23:00 +3°C° 0 mm 2 m/S 623 mmHg 30%

    übermorgen, 23 Februar, Samstag

    Zeit Temperatur Niederschläge Wind Luftdruck Luftfeuchtigkeit
    00:00 +3°C° 0 mm 2 m/S 623 mmHg 27%
    01:00 +3°C° 0 mm 2 m/S 623 mmHg 29%
    02:00 +4°C° 0 mm 1 m/S 623 mmHg 31%
    03:00 +4°C° 0 mm 1 m/S 622 mmHg 32%
    04:00 +4°C° 0 mm 1 m/S 623 mmHg 35%
    05:00 +4°C° 0 mm 1 m/S 623 mmHg 38%
    06:00 +4°C° 0 mm 1 m/S 623 mmHg 40%
    07:00 +6°C° 0 mm 1 m/S 624 mmHg 40%
    08:00 +8°C° 0 mm 1 m/S 625 mmHg 39%
    09:00 +9°C° 0 mm 0 m/S 626 mmHg 38%
    10:00 +11°C° 0 mm 1 m/S 626 mmHg 37%
    11:00 +13°C° 0 mm 1 m/S 627 mmHg 36%
    12:00 +14°C° 0 mm 1 m/S 628 mmHg 35%
    13:00 +14°C° 0 mm 1 m/S 627 mmHg 38%
    14:00 +13°C° 0 mm 2 m/S 627 mmHg 42%
    15:00 +13°C° 0 mm 2 m/S 626 mmHg 45%
    16:00 +11°C° 0 mm 1 m/S 625 mmHg 56%
    17:00 +8°C° 0 mm 1 m/S 624 mmHg 67%
    18:00 +6°C° 0 mm 1 m/S 624 mmHg 77%
    19:00 +5°C° 0 mm 1 m/S 624 mmHg 77%
    20:00 +5°C° 0 mm 1 m/S 624 mmHg 77%
    21:00 +4°C° 0 mm 1 m/S 624 mmHg 77%
    22:00 +4°C° 0 mm 1 m/S 624 mmHg 71%
    23:00 +4°C° 0 mm 1 m/S 624 mmHg 66%

    24 Februar, Sonntag

    Zeit Temperatur Niederschläge Wind Luftdruck Luftfeuchtigkeit
    00:00 +4°C° 0 mm 1 m/S 624 mmHg 60%
    01:00 +3°C° 0 mm 1 m/S 624 mmHg 58%
    02:00 +3°C° 0 mm 1 m/S 624 mmHg 56%
    03:00 +3°C° 0 mm 1 m/S 624 mmHg 54%
    04:00 +3°C° 0 mm 1 m/S 624 mmHg 53%
    05:00 +3°C° 0 mm 1 m/S 624 mmHg 52%
    06:00 +2°C° 0 mm 1 m/S 624 mmHg 51%
    07:00 +4°C° 0 mm 1 m/S 625 mmHg 47%
    08:00 +5°C° 0 mm 0 m/S 626 mmHg 44%
    09:00 +7°C° 0 mm 0 m/S 627 mmHg 40%
    10:00 +9°C° 0 mm 0 m/S 628 mmHg 39%
    11:00 +11°C° 0 mm 1 m/S 628 mmHg 38%
    12:00 +12°C° 0 mm 1 m/S 629 mmHg 37%
    13:00 +12°C° 0 mm 1 m/S 629 mmHg 40%
    14:00 +12°C° 0 mm 1 m/S 628 mmHg 43%
    15:00 +12°C° 0 mm 1 m/S 628 mmHg 47%
    16:00 +9°C° 0 mm 1 m/S 627 mmHg 59%
    17:00 +6°C° 0 mm 0 m/S 626 mmHg 71%
    18:00 +4°C° 0 mm 0 m/S 625 mmHg 83%
    19:00 +3°C° 0 mm 0 m/S 626 mmHg 83%
    20:00 +4°C° 0 mm 1 m/S 626 mmHg 83%
    21:00 +4°C° 0 mm 1 m/S 626 mmHg 84%
    22:00 +4°C° 0 mm 1 m/S 626 mmHg 79%
    23:00 +4°C° 0 mm 1 m/S 626 mmHg 75%

    25 Februar, Montag

    Zeit Temperatur Niederschläge Wind Luftdruck Luftfeuchtigkeit
    00:00 +3°C° 0 mm 1 m/S 625 mmHg 70%
    01:00 +3°C° 0 mm 1 m/S 625 mmHg 63%
    02:00 +3°C° 0 mm 1 m/S 625 mmHg 57%
    03:00 +3°C° 0 mm 1 m/S 625 mmHg 50%
    04:00 +3°C° 0 mm 1 m/S 625 mmHg 49%
    05:00 +3°C° 0 mm 1 m/S 624 mmHg 47%
    06:00 +3°C° 0 mm 1 m/S 624 mmHg 46%
    07:00 +5°C° 0 mm 1 m/S 625 mmHg 44%
    08:00 +7°C° 0 mm 1 m/S 626 mmHg 43%
    09:00 +9°C° 0 mm 1 m/S 627 mmHg 41%
    10:00 +10°C° 0 mm 1 m/S 627 mmHg 40%
    11:00 +12°C° 0 mm 1 m/S 627 mmHg 38%
    12:00 +13°C° 0 mm 1 m/S 628 mmHg 37%
    13:00 +13°C° 0 mm 1 m/S 627 mmHg 39%
    14:00 +13°C° 0 mm 1 m/S 626 mmHg 41%
    15:00 +12°C° 0 mm 2 m/S 626 mmHg 44%
    16:00 +10°C° 0 mm 1 m/S 625 mmHg 55%
    17:00 +8°C° 0 mm 1 m/S 624 mmHg 66%
    18:00 +5°C° 0 mm 1 m/S 623 mmHg 78%
    19:00 +5°C° 0 mm 1 m/S 623 mmHg 77%
    20:00 +4°C° 0 mm 1 m/S 623 mmHg 77%
    21:00 +4°C° 0 mm 1 m/S 623 mmHg 76%
    22:00 +4°C° 0 mm 1 m/S 623 mmHg 77%
    23:00 +3°C° 0 mm 1 m/S 623 mmHg 77%

    26 Februar, Dienstag

    Zeit Temperatur Niederschläge Wind Luftdruck Luftfeuchtigkeit
    00:00 +2°C° 0 mm 2 m/S 623 mmHg 77%
    01:00 +2°C° 0 mm 2 m/S 623 mmHg 80%
    02:00 +2°C° 0 mm 2 m/S 623 mmHg 83%
    03:00 +2°C° 0 mm 2 m/S 623 mmHg 86%
    04:00 +2°C° 0 mm 2 m/S 623 mmHg 85%
    05:00 +2°C° 0 mm 2 m/S 623 mmHg 84%
    06:00 +2°C° 0 mm 2 m/S 623 mmHg 83%
    07:00 +3°C° 0 mm 2 m/S 624 mmHg 72%
    08:00 +5°C° 0 mm 2 m/S 625 mmHg 61%
    09:00 +7°C° 0 mm 2 m/S 626 mmHg 49%
    10:00 +9°C° 0 mm 2 m/S 626 mmHg 44%
    11:00 +10°C° 0 mm 2 m/S 627 mmHg 39%
    12:00 +13°C° 0 mm 2 m/S 627 mmHg 34%
    13:00 +12°C° 0 mm 2 m/S 627 mmHg 35%
    14:00 +12°C° 0 mm 2 m/S 626 mmHg 36%
    15:00 +12°C° 0 mm 2 m/S 626 mmHg 36%
    16:00 +9°C° 0 mm 2 m/S 625 mmHg 46%
    17:00 +7°C° 0 mm 2 m/S 624 mmHg 56%
    18:00 +4°C° 0 mm 2 m/S 623 mmHg 66%
    19:00 +3°C° 0 mm 2 m/S 623 mmHg 67%
    20:00 +3°C° 0 mm 2 m/S 623 mmHg 68%
    21:00 +2°C° 0 mm 2 m/S 622 mmHg 69%
    22:00 +2°C° 0 mm 2 m/S 622 mmHg 65%
    23:00 +2°C° 0 mm 2 m/S 622 mmHg 60%
    Mehr zeigen